パンスターズ彗星

P/2012 T2 ( PanSTARRS ) 2027

English version
Home page
Updated on January 8, 2021

---------------------------------------------------------------------

・ プロフィール

・ 軌道要素

Epoch 2027 Feb. 4.0 TT = JDT 2461440.5
T 2027 Jan. 21.89295 TT                                 MPC
q   4.7905472            (2000.0)            P               Q
n   0.07223736     Peri.  311.44567     +0.88812416     -0.40938088
a   5.7098951      Node    73.68055     +0.45911411     +0.76925982
e   0.1610096      Incl.   12.57274     +0.02120651     +0.49055746
P  13.6
From 37 observations 2012 Oct. 10-Nov. 13, mean residual 0".5.

・ 光度変化

        m1 = 9.5 + 5 logΔ + 10.0 log r

---------------------------------------------------------------------

軌道要素はM.P.E.C. 2013-A29に掲載されたものです。
光度グラフはComet for Windowsで作成したものです。

---------------------------------------------------------------------

Copyright(C) Seiichi Yoshida (comet@aerith.net). All rights reserved.